{"data":{"norad_id":56542,"intl_designator":"2023-065AR","name":"STARLINK-6266","alt_names":[],"object_type":"PAYLOAD","status":"ACTIVE","operator":null,"country":"US","launch_date":"2023-05-14","launch_site_code":"AFETR","launch_vehicle":null,"mission":null,"orbit_class":"UNKNOWN","rcs_meters":null,"size_class":null,"mass_kg":null,"dimensions":null,"purposes":["comms"],"wikipedia_slug":null,"has_3d_model":false,"image_url":null,"decayed_at":null,"tle_current":{"epoch":"2026-05-25T01:28:38.828928Z","epoch_age_seconds":65688,"freshness":"FRESH","line1":"1 56542U 23065AR  26145.06156052  .00003729  00000+0  14485-3 0  9996","line2":"2 56542  43.0002 155.5640 0000932 275.3351  84.7394 15.27602545168118","mean_motion":15.27602545,"eccentricity":9.32e-5,"inclination_deg":43.0002,"raan_deg":155.564,"arg_perigee_deg":275.3351,"mean_anomaly_deg":84.7394,"bstar":0.00014485,"rev_number":16811,"period_min":94.265357485379,"perigee_km":482.34213277689,"apogee_km":483.62104528189,"semimajor_km":6861.1185890294,"source":"CELESTRAK","updated_at":"2026-05-25T13:38:18.114962Z"}}}